Regional Weather Roundup
Issued by NWS

Home | Current Version | Previous Version | Text Only | Print | Product List | Glossary Off
Versions: 1 2 3 4 5 6 7 8 9 10 11 12 13 14 15 16 17 18 19 20 21 22 23 24 25 26 27 28 29 30 31 32 33 34 35 36 37 38 39 40 41 42 43 44 45 46 47 48 49 50

000
ASUS45 KBOU 171307
RWRCO

WEATHER ROUNDUP FOR COLORADO
NATIONAL WEATHER SERVICE DENVER/BOULDER CO
700 AM MDT FRI APR 17 2015

NOTE: "FAIR" INDICATES FEW OR NO CLOUDS BELOW 12000 FEET WITH NO
SIGNIFICANT WEATHER AND/OR OBSTRUCTIONS TO VISIBILITY.

COZ001>005-013-030-031-171400-
...NORTHWEST COLORADO...

CITY           SKY/WX    TMP DP  RH WIND       PRES   REMARKS
CRAIG          CLOUDY    34  31  88 N5        30.01R WCI  30
HAYDEN         CLOUDY    32  30  93 CALM      30.00S VSB 1/4
MEEKER         FOG       32  30  92 MISG      29.98S VSB 1/4
MOUNT WERNER   NOT AVBL
STEAMBOAT SPGS CLOUDY    32  31  96 W8        29.99S WCI  25
WALDEN         CLOUDY    30  27  86 NE6       30.04F WCI  24
$$

COZ006>008-011-171400-
...WEST CENTRAL VALLEYS...

CITY           SKY/WX    TMP DP  RH WIND       PRES   REMARKS
GRAND JUNCTION LGT SNOW  32  32 100 E6        30.01S FOG     WCI  26
MONTROSE       CLOUDY    33  29  85 E9        30.05R WCI  25
EAGLE          MOCLDY    34  32  93 E5        29.97F WCI  30
RIFLE          CLOUDY    37  34  89 W8        29.98S
DELTA          LGT SNOW  34  34  99 E3        30.04F
NUCLA          LGT SNOW  32  30  93 E6        30.08F WCI  26
$$

COZ017>023-064>068-171400-
...SOUTHWEST COLORADO...

CITY           SKY/WX    TMP DP  RH WIND       PRES   REMARKS
DURANGO        CLOUDY    25  11  55 E3        30.03S
CORTEZ         MOCLDY    30  18  60 CALM      30.05S
PAGOSA SPRINGS MOCLDY    20  13  75 CALM      30.04S
TELLURIDE      LGT SNOW  22  21  96 CALM      30.03R
WOLF CREEK PAS MOCLDY     9   7  92 SW18      30.01R WCI -10
$$

COZ009-010-012-014-032>034-037-058>063-171400-
...CENTRAL COLORADO...

CITY           SKY/WX    TMP DP  RH WIND       PRES   REMARKS
ASPEN          SNOW      30  30 100 CALM      29.93F VSB 1/2
BUENA VISTA    SNOW      30  29  95 MISG      29.97R VSB 1/2
COPPER MTN     LGT SNOW  25  19  80 N15G22    29.99S WCI  12
BERTHOUD PASS  HVY SNOW  18  10  73 MISG      30.02S VSB<1/4
COTTONWOOD PAS HVY SNOW  30  28  93 SE10      29.96S VSB 1/4 WCI  21
GUNNISON         N/A     27  23  86 S8        30.03S VSB 1/2 WCI  18
KREMMLING      CLOUDY    34  32  93 CALM      30.01S
LEADVILLE      LGT SNOW  26  23  88 S3        29.93F FOG
MONARCH PASS   CLOUDY    16  12  86 MISG      30.07R
SALIDA         CLOUDY    31  29  95 N3        30.06R
SUNLIGHT       CLOUDY   N/A N/A N/A NE5       30.02R FOG
WILKERSON PASS CLOUDY   N/A N/A N/A E14G23    29.97F
$$

COZ069>075-171400-
...SAN LUIS VALLEY/SANGRE DE CRISTO MOUNTAINS...

CITY           SKY/WX    TMP DP  RH WIND       PRES   REMARKS
ALAMOSA        PTCLDY    23  17  78 S3        30.01R
LA VETA PASS   MOCLDY    16  12  86 MISG      29.97S
SAGUACHE       LGT SNOW  28  27  93 CALM      30.01S
$$

COZ035-036-038>040-171400-
...NORTHERN COLORADO FRONT RANGE...

CITY           SKY/WX    TMP DP  RH WIND       PRES   REMARKS
DENVER INTL AP FOG       36  35  96 NW6       30.02S VSB 1/8
DMNS CITY PARK   N/A     37  36  99 N5        30.03R
AURORA         FOG       33  33 100 CALM      30.02F VSB 1/4
FRONT RANGE AP FOG       36  36 100 W6        30.03S VSB 1/4
ERIE MUNI ARPT RAIN      38  38 100 N12G17    30.04S
BOULDER MUN AP DRIZZLE   37  37 100 N14G20    30.04S
CENTENNIAL     LGT RAIN  33  33 100 W3        30.02S VSB 1/4
BROOMFIELD     NOT AVBL
FORT COLLINS   CLOUDY    39  37  93 N14       30.07S
LONGMONT       LGT RAIN  42  40  91 N18       30.06S
$$

COZ041-046-047-076>085-087-088-171400-
...PIKES PEAK/PALMER DIVIDE AND SOUTHERN FOOTHILLS...

CITY           SKY/WX    TMP DP  RH WIND       PRES   REMARKS
COLO. SPRINGS  TSTM      37  35  92 NE20      29.96F
A. F. ACADEMY  LGT SNOW  33  33  98 NW10      29.97F FOG     WCI  25
ELLICOTT       LGT RAIN N/A N/A N/A E18       29.94F
FALCON         CLOUDY    35  34  99 NE16      29.98F VSB 1/4 WCI  25
FORT CARSON    LGT RAIN  36  36  99 N14       29.95S
LIMON          CLOUDY    42  41  96 E13       30.00R
MONUMENT HILL  SNOW      30  30 100 N7        29.98F VSB 1/4 WCI  23
TRINIDAD       CLOUDY    33  32  96 MISG      29.98F
$$

COZ042>045-048>051-090-091-171400-
...NORTHEAST COLORADO...

CITY           SKY/WX    TMP DP  RH WIND       PRES   REMARKS
GREELEY ARPT   CLOUDY    43  37  81 NE10      30.05R
AKRON          LGT RAIN  45  45 100 E9        30.01S FOG
BURLINGTON     CLOUDY    49  47  93 SE14      30.00S
WRAY           CLOUDY   N/A N/A N/A E12       30.01S
STERLING       CLOUDY    46  46 100 E5        30.02R
HOLYOKE        LGT RAIN  54  52  94 E17       30.03S
FORT MORGAN    CLOUDY    45  44  97 NE3       30.03R FOG
$$

COZ086-089-092>099-171400-
...SOUTHEAST COLORADO...

CITY           SKY/WX    TMP DP  RH WIND       PRES   REMARKS
PUEBLO         LGT RAIN  43  43 100 SW6       29.92F FOG
LA JUNTA       CLOUDY    45  42  89 S13       29.96R
LAMAR          CLOUDY    51  50  96 E9        29.94F FOG
SPRINGFIELD      N/A     48  48 100 SE16      29.97S
$$


USA.gov is the U.S. government's official web portal to all federal, state and local government web resources and services.